Time,TemperatureF,DewpointF,PressureIn,WindDirection,WindDirectionDegrees,WindSpeedMPH,WindSpeedGustMPH,Humidity,HourlyPrecipIn,Conditions,Clouds,dailyrainin,SoftwareType,DateUTC
2013-05-13 00:00:00,48.0,28.8,30.33,SSW,202,0.0,4.0,47,-99.99,,,0.00,VWS V14.01,2013-05-13 04:00:00,
2013-05-13 00:30:00,46.4,28.3,30.33,NNE,27,0.0,5.8,49,-99.99,,,0.00,VWS V14.01,2013-05-13 04:30:00,
2013-05-13 01:00:00,46.8,28.6,30.33,NNE,28,0.0,4.5,49,-99.99,,,0.00,VWS V14.01,2013-05-13 05:00:00,
2013-05-13 01:30:00,46.4,28.8,30.33,NE,34,0.0,4.5,50,-99.99,,,0.00,VWS V14.01,2013-05-13 05:30:00,
2013-05-13 02:00:00,46.2,28.1,30.33,NE,56,0.0,5.4,49,-99.99,,,0.00,VWS V14.01,2013-05-13 06:00:00,
2013-05-13 02:30:00,45.9,26.3,30.33,East,85,6.3,6.3,46,-99.99,,,0.00,VWS V14.01,2013-05-13 06:30:00,
2013-05-13 03:00:00,45.5,24.9,30.33,NNE,31,0.0,6.7,44,-99.99,,,0.00,VWS V14.01,2013-05-13 07:00:00,
2013-05-13 03:30:00,45.1,26.6,30.30,NE,51,0.0,6.7,48,-99.99,,,0.00,VWS V14.01,2013-05-13 07:30:00,
2013-05-13 04:00:00,44.8,26.8,30.33,NE,54,0.0,4.9,49,-99.99,,,0.00,VWS V14.01,2013-05-13 08:00:00,
2013-05-13 04:30:00,44.4,27.4,30.30,East,92,0.0,4.9,51,-99.99,,,0.00,VWS V14.01,2013-05-13 08:30:00,
2013-05-13 05:00:00,44.1,27.1,30.33,ESE,110,0.0,6.3,51,-99.99,,,0.00,VWS V14.01,2013-05-13 09:00:00,
2013-05-13 05:30:00,43.7,27.2,30.33,ENE,60,0.0,5.4,52,-99.99,,,0.00,VWS V14.01,2013-05-13 09:30:00,
2013-05-13 06:00:00,43.5,28.0,30.33,NE,56,0.0,5.8,54,-99.99,,,0.00,VWS V14.01,2013-05-13 10:00:00,
2013-05-13 06:30:00,43.0,27.5,30.33,NE,55,0.0,6.3,54,-99.99,,,0.00,VWS V14.01,2013-05-13 10:30:00,
2013-05-13 07:00:00,42.8,27.8,30.36,NE,50,0.0,4.5,55,-99.99,,,0.00,VWS V14.01,2013-05-13 11:00:00,
2013-05-13 07:30:00,42.3,28.1,30.36,NE,53,0.0,4.9,57,-99.99,,,0.00,VWS V14.01,2013-05-13 11:30:00,
2013-05-13 08:00:00,43.0,28.8,30.36,NE,56,0.0,6.3,57,-99.99,,,0.00,VWS V14.01,2013-05-13 12:00:00,
2013-05-13 08:30:00,44.4,30.2,30.39,ENE,60,0.0,5.4,57,-99.99,,,0.00,VWS V14.01,2013-05-13 12:30:00,
2013-05-13 09:00:00,45.3,29.7,30.39,ENE,60,0.0,4.0,54,-99.99,,,0.00,VWS V14.01,2013-05-13 13:00:00,
2013-05-13 09:30:00,47.3,27.0,30.39,NNE,13,0.0,5.4,45,-99.99,,,0.00,VWS V14.01,2013-05-13 13:30:00,
2013-05-13 10:00:00,48.7,24.9,30.39,ENE,71,0.0,8.7,39,-99.99,,,0.00,VWS V14.01,2013-05-13 14:00:00,
2013-05-13 10:30:00,50.2,24.3,30.42,NNE,23,0.0,7.8,36,-99.99,,,0.00,VWS V14.01,2013-05-13 14:30:00,
2013-05-13 11:00:00,51.8,22.9,30.42,SSW,205,4.5,9.2,32,-99.99,,,0.00,VWS V14.01,2013-05-13 15:00:00,
2013-05-13 11:30:00,53.6,27.3,30.42,SSW,207,0.0,10.1,36,-99.99,,,0.00,VWS V14.01,2013-05-13 15:30:00,
2013-05-13 12:00:00,55.4,23.7,30.42,South,189,0.0,9.2,29,-99.99,,,0.00,VWS V14.01,2013-05-13 16:00:00,
2013-05-13 12:30:00,56.8,25.8,30.42,SSE,160,3.1,8.7,30,-99.99,,,0.00,VWS V14.01,2013-05-13 16:30:00,
2013-05-13 13:00:00,59.4,25.4,30.42,SSW,195,3.6,9.6,27,-99.99,,,0.00,VWS V14.01,2013-05-13 17:00:00,
2013-05-13 13:30:00,61.0,24.0,30.42,SSW,195,0.0,11.2,24,-99.99,,,0.00,VWS V14.01,2013-05-13 17:30:00,
2013-05-13 14:00:00,61.5,24.4,30.39,NE,49,3.1,12.1,24,-99.99,,,0.00,VWS V14.01,2013-05-13 18:00:00,
2013-05-13 14:30:00,64.2,12.4,30.39,South,174,6.7,10.1,13,-99.99,,,0.00,VWS V14.01,2013-05-13 18:30:00,
2013-05-13 15:00:00,67.3,24.9,30.39,SW,222,6.9,14.3,20,-99.99,,,0.00,VWS V14.01,2013-05-13 19:00:00,
2013-05-13 15:30:00,67.1,8.7,30.39,South,179,5.8,10.1,10,-99.99,,,0.00,VWS V14.01,2013-05-13 19:30:00,
2013-05-13 16:00:00,69.3,10.4,30.36,SSW,206,5.8,10.1,10,-99.99,,,0.00,VWS V14.01,2013-05-13 20:00:00,
2013-05-13 16:30:00,70.0,10.9,30.36,SW,224,3.1,13.0,10,-99.99,,,0.00,VWS V14.01,2013-05-13 20:30:00,
2013-05-13 17:00:00,70.2,11.1,30.33,SSW,192,6.7,12.1,10,-99.99,,,0.00,VWS V14.01,2013-05-13 21:00:00,
2013-05-13 17:30:00,69.4,10.5,30.33,South,175,6.7,11.0,10,-99.99,,,0.00,VWS V14.01,2013-05-13 21:30:00,
2013-05-13 18:00:00,69.4,10.5,30.33,South,183,4.9,12.1,10,-99.99,,,0.00,VWS V14.01,2013-05-13 22:00:00,
2013-05-13 18:30:00,67.3,8.9,30.33,South,186,4.0,13.4,10,-99.99,,,0.00,VWS V14.01,2013-05-13 22:30:00,
2013-05-13 19:00:00,64.8,6.9,30.33,SW,221,0.0,10.5,10,-99.99,,,0.00,VWS V14.01,2013-05-13 23:00:00,
2013-05-13 19:30:00,61.0,4.0,30.33,SSW,196,4.5,6.9,10,-99.99,,,0.00,VWS V14.01,2013-05-13 23:30:00,
2013-05-13 20:00:00,59.0,14.3,30.33,South,185,0.0,8.7,17,-99.99,,,0.00,VWS V14.01,2013-05-14 00:00:00,
2013-05-13 20:30:00,57.0,22.5,30.36,South,190,4.9,6.7,26,-99.99,,,0.00,VWS V14.01,2013-05-14 00:30:00,
2013-05-13 21:00:00,54.9,27.8,30.36,South,190,0.0,4.9,35,-99.99,,,0.00,VWS V14.01,2013-05-14 01:00:00,
2013-05-13 21:30:00,52.7,27.2,30.36,South,188,0.0,0.0,37,-99.99,,,0.00,VWS V14.01,2013-05-14 01:30:00,
2013-05-13 22:00:00,52.0,26.5,30.36,SSW,208,3.1,4.9,37,-99.99,,,0.00,VWS V14.01,2013-05-14 02:00:00,
2013-05-13 22:30:00,50.7,26.0,30.39,SSW,193,0.0,6.3,38,-99.99,,,0.00,VWS V14.01,2013-05-14 02:30:00,
2013-05-13 23:00:00,49.8,26.5,30.39,WSW,251,0.0,5.4,40,-99.99,,,0.00,VWS V14.01,2013-05-14 03:00:00,
2013-05-13 23:30:00,49.6,26.3,30.39,NNE,12,0.0,4.5,40,-99.99,,,0.00,VWS V14.01,2013-05-14 03:30:00,